Wind_Speed
29 30 30 31 30 31 32 34 36 34 34 34 34 33 32 32 33 32 30 27 24 25 25 24 23 23 25 25 23 23 23 23 24 25 24 24 25 24 23 23 22 22
29 29 30 31 31 31 32 34 35 34 33 33 34 33 32 31 31 32 31 28 24 23 22 23 23 22 23 24 24 24 24 24 24 25 25 26 26 25 24 24 23 23
29 29 30 31 32 32 33 33 34 34 33 33 33 33 32 31 30 30 31 28 24 22 22 22 23 22 22 23 24 25 25 24 24 24 24 26 27 26 26 25 24 25
29 29 30 31 32 33 34 33 33 34 34 33 32 32 32 31 29 30 31 29 24 23 23 24 24 23 23 23 23 24 24 25 26 25 24 26 26 26 27 26 26 27
28 28 29 30 32 33 34 34 34 34 35 34 33 31 30 30 29 29 30 29 26 25 25 25 25 23 24 23 23 23 24 25 26 26 26 27 27 27 27 27 27 27
27 28 29 30 31 32 33 34 34 35 35 34 33 31 28 27 28 28 28 28 26 25 25 26 25 24 24 24 24 23 23 24 25 25 27 28 28 28 27 27 28 28
27 27 28 29 30 30 31 33 33 34 34 33 33 31 28 25 26 27 27 27 26 25 25 27 27 26 25 25 25 24 23 23 24 25 27 28 28 28 27 27 28 29
27 27 27 28 28 29 30 31 33 33 33 32 31 30 28 25 25 25 25 27 26 25 25 25 25 26 26 26 25 25 23 22 23 25 27 28 28 28 28 27 27 28
27 27 26 27 28 29 30 31 31 31 31 30 29 28 27 26 25 25 24 25 26 25 24 24 25 27 26 24 24 24 22 22 25 26 27 28 29 30 30 28 28 29
26 26 26 27 29 30 30 30 31 30 29 28 28 28 28 26 25 24 25 25 26 25 23 23 25 27 26 24 23 23 22 24 26 27 28 29 30 31 30 29 29 30
26 26 27 29 29 30 31 31 30 29 27 26 26 26 27 26 23 23 24 25 25 25 25 24 24 24 27 28 26 24 24 26 27 28 29 30 30 30 30 29 30 31
26 27 28 30 30 31 31 31 30 27 25 24 24 25 25 25 23 22 23 25 25 25 27 27 25 23 24 28 30 29 27 27 27 28 28 30 30 30 30 30 31 31
27 28 29 31 32 32 31 31 29 26 24 23 23 23 24 23 22 21 21 23 25 25 27 27 26 22 22 26 30 32 29 27 26 27 28 29 29 29 30 31 30 31
29 30 31 32 32 32 31 30 28 27 25 23 22 22 23 23 22 20 19 20 22 23 25 25 24 22 21 23 26 30 31 29 27 27 28 28 28 29 30 31 30 30
30 31 31 32 32 31 30 29 28 28 27 26 24 23 23 23 22 20 19 19 20 21 22 23 23 23 22 21 21 24 27 28 30 30 29 28 28 29 30 30 30 30
32 32 32 32 32 31 29 29 29 29 30 30 28 25 24 24 24 22 21 20 20 21 22 23 24 24 23 23 22 22 24 27 29 30 29 29 29 29 31 30 30 31
33 33 33 33 31 30 29 29 30 31 32 33 33 30 27 25 25 25 23 22 21 21 22 23 23 23 23 24 24 24 24 26 28 28 29 31 30 29 31 32 31 32
35 34 34 34 32 31 31 31 31 32 33 34 35 35 32 28 26 26 26 24 23 23 23 24 23 22 23 24 24 24 24 23 25 27 29 31 32 31 31 32 33 34
35 35 35 34 34 33 33 33 33 33 34 34 35 36 35 32 29 27 27 27 26 25 25 25 24 23 23 24 24 25 24 22 24 26 27 29 31 31 32 33 34 35
36 36 36 36 36 36 36 36 36 36 35 35 35 36 36 35 32 30 29 29 28 27 26 26 25 24 24 25 25 25 24 22 23 26 27 28 29 29 32 34 34 34
35 36 37 37 38 38 38 39 39 38 37 37 36 36 37 37 35 33 31 30 30 30 29 27 26 25 25 25 25 25 25 23 24 25 27 28 29 29 30 32 34 34
36 37 38 38 39 39 40 40 40 40 39 38 38 37 37 38 37 36 34 32 32 32 31 30 28 27 26 26 26 25 25 25 25 26 28 29 30 30 28 29 32 34
39 40 40 41 41 41 41 41 41 41 41 40 39 39 39 39 39 39 37 35 34 33 33 32 31 29 28 27 27 26 26 26 26 27 28 29 30 31 30 29 29 32
42 43 43 43 43 43 42 42 42 41 41 41 40 39 40 40 40 41 40 39 37 36 35 34 33 32 31 29 28 27 28 28 28 28 28 29 29 29 30 29 28 29
44 45 45 45 45 45 44 43 43 42 41 41 40 39 38 39 40 40 41 41 40 38 37 37 35 34 34 33 32 30 29 29 30 29 28 29 29 28 28 27 27 28
45 45 46 46 46 46 45 45 45 44 44 43 43 41 40 39 39 40 40 41 40 39 39 38 38 37 36 35 35 33 31 30 31 31 30 30 29 29 30 30 28 28
Wind_Direction
299 300 301 303 305 309 310 309 307 307 308 307 308 309 304 298 294 293 294 292 287 285 285 285 281 269 263 265 265 262 261 259 256 253 250 247 246 244 241 244 248 244
298 299 301 304 307 310 311 309 308 308 307 306 305 305 302 299 296 293 291 291 287 282 280 280 279 273 267 265 262 260 261 260 258 256 253 247 245 246 245 245 248 249
297 299 302 306 309 311 312 311 309 307 306 305 303 304 301 298 297 295 292 291 283 274 273 272 269 268 268 267 264 262 262 260 259 259 256 249 246 249 247 244 248 252
299 301 304 307 309 310 311 310 309 307 307 307 306 305 303 299 295 293 293 291 280 269 268 267 265 265 267 269 268 264 258 254 254 256 255 251 251 251 247 244 248 250
300 303 305 307 308 309 310 310 309 309 309 311 311 309 305 300 295 292 291 290 281 267 264 266 267 265 264 265 269 266 258 253 254 255 252 250 249 249 247 247 249 249
301 304 306 307 308 308 310 310 310 310 311 313 314 312 305 298 295 291 288 287 282 269 264 266 267 266 264 263 267 269 264 259 257 256 253 250 247 243 244 247 249 248
300 303 305 306 307 308 310 311 310 311 313 315 316 313 307 297 293 291 286 284 281 274 272 272 270 271 269 264 265 269 269 264 260 258 255 251 245 240 242 245 246 246
299 303 304 304 306 308 309 310 310 312 313 316 317 314 311 304 297 292 285 280 277 274 272 270 270 275 272 265 264 265 266 265 261 258 255 251 247 244 246 245 243 243
299 300 300 302 305 307 309 309 310 311 313 317 319 317 315 312 303 293 284 278 274 271 268 262 264 270 269 264 262 262 262 262 259 257 254 251 249 248 247 245 243 243
297 297 298 301 304 306 308 309 309 312 315 318 321 320 320 319 310 295 284 279 276 274 272 267 265 265 263 263 265 265 262 259 257 256 255 253 252 250 248 247 245 244
293 295 297 300 303 304 307 309 309 312 316 318 320 321 322 323 316 299 284 276 273 272 274 275 272 267 263 262 264 267 265 260 255 254 254 254 253 251 249 247 245 245
291 294 297 300 302 304 305 307 308 311 315 319 320 320 322 324 321 309 291 278 272 270 270 272 273 271 265 261 260 263 265 264 260 255 251 250 250 249 247 245 245 247
291 294 298 299 301 302 303 304 305 309 314 318 320 320 321 321 321 317 304 289 280 275 271 271 273 274 269 262 260 260 261 264 265 262 259 253 249 248 246 245 246 248
291 295 297 299 300 301 301 302 302 305 310 314 317 318 318 318 318 316 309 299 290 283 277 270 270 278 279 269 263 260 258 260 264 269 272 266 255 250 248 248 248 248
290 293 296 297 298 299 299 299 299 301 305 308 311 314 314 314 314 313 309 303 296 292 289 278 273 282 289 284 277 269 263 262 263 265 271 272 263 254 250 250 250 250
289 292 293 294 295 295 295 296 297 299 302 304 306 307 308 309 309 309 306 302 296 292 294 291 289 292 294 290 288 281 271 269 267 264 266 271 268 259 253 250 249 250
288 289 290 290 290 291 292 294 296 298 300 302 303 303 303 302 302 303 302 300 296 291 290 292 295 298 297 294 292 286 277 275 275 271 269 270 270 264 257 252 249 249
285 286 286 286 286 287 289 291 294 296 298 300 301 301 301 299 297 297 297 296 294 291 289 289 291 295 297 297 296 292 287 283 281 277 272 271 271 267 259 253 249 249
283 283 283 282 282 284 286 289 291 292 294 295 297 298 299 298 296 294 293 292 291 290 289 288 289 291 292 294 295 295 294 294 289 282 277 273 271 267 261 254 249 248
281 281 281 280 281 282 284 287 288 290 291 293 294 295 296 296 295 293 291 289 288 287 287 287 288 288 288 290 292 293 296 297 293 285 279 275 273 269 263 256 251 248
281 281 281 281 282 283 284 286 288 289 290 290 291 291 292 293 294 293 291 289 287 286 285 284 285 286 286 286 287 290 292 293 291 287 281 273 270 269 263 257 254 250
281 281 282 282 283 284 285 286 287 288 288 288 288 288 288 289 290 291 290 289 287 286 284 283 282 281 282 284 285 287 288 288 288 287 282 275 271 270 267 260 256 253
281 282 283 284 284 285 285 285 286 286 286 286 286 286 286 286 286 287 288 287 286 285 284 283 281 279 278 279 281 283 285 285 285 284 282 280 278 275 271 267 261 256
282 283 284 285 286 286 286 285 285 285 285 285 285 285 284 284 284 284 284 285 284 284 283 282 280 278 276 275 276 278 281 281 282 282 281 281 280 276 274 271 267 262
282 282 283 284 285 285 286 286 285 284 284 284 284 284 283 283 282 282 282 283 283 283 282 281 280 277 275 274 273 275 277 277 278 278 277 276 275 275 275 273 270 267
281 281 281 282 283 284 284 285 285 285 285 284 284 283 282 281 281 281 281 281 282 282 282 281 280 279 277 275 275 275 274 273 274 276 276 275 274 274 275 275 276 275
Height
5789 5788 5787 5786 5786 5785 5783 5781 5779 5778 5777 5775 5774 5773 5772 5770 5770 5770 5769 5768 5768 5769 5769 5768 5767 5766 5767 5768 5769 5769 5770 5770 5770 5771 5772 5774 5774 5775 5776 5778 5779 5779
5787 5785 5784 5783 5783 5782 5781 5779 5776 5775 5774 5772 5771 5769 5768 5767 5766 5766 5766 5765 5765 5765 5766 5766 5765 5764 5764 5765 5766 5766 5767 5767 5768 5768 5769 5771 5772 5773 5774 5775 5776 5776
5784 5783 5782 5781 5779 5779 5778 5776 5774 5772 5771 5770 5768 5766 5765 5763 5763 5762 5762 5761 5761 5761 5761 5761 5761 5761 5761 5762 5763 5763 5764 5764 5765 5765 5766 5768 5769 5770 5771 5772 5773 5773
5781 5780 5779 5778 5776 5775 5774 5773 5771 5769 5768 5767 5765 5764 5762 5760 5759 5759 5758 5757 5757 5757 5757 5757 5757 5758 5758 5759 5759 5760 5760 5760 5761 5762 5763 5765 5766 5767 5768 5770 5770 5771
5779 5778 5777 5775 5774 5772 5771 5769 5768 5766 5764 5763 5762 5760 5759 5757 5755 5754 5754 5754 5753 5753 5753 5753 5754 5755 5755 5755 5755 5755 5756 5757 5758 5759 5760 5761 5763 5764 5765 5766 5767 5767
5776 5775 5774 5772 5771 5770 5768 5766 5765 5763 5761 5760 5758 5757 5755 5754 5752 5751 5750 5750 5750 5750 5750 5750 5750 5751 5751 5751 5751 5752 5753 5754 5755 5757 5757 5758 5759 5761 5762 5763 5763 5764
5773 5772 5771 5770 5768 5767 5766 5764 5762 5761 5759 5757 5755 5753 5752 5750 5749 5748 5747 5747 5746 5747 5748 5749 5748 5748 5748 5748 5748 5749 5750 5751 5753 5753 5754 5754 5755 5757 5759 5759 5760 5761
5770 5769 5768 5767 5766 5765 5763 5762 5760 5758 5757 5755 5753 5751 5748 5747 5745 5744 5744 5744 5743 5744 5745 5746 5747 5747 5746 5746 5746 5747 5748 5749 5749 5750 5750 5750 5751 5753 5754 5755 5756 5757
5767 5766 5766 5765 5764 5763 5761 5760 5758 5756 5754 5752 5751 5748 5746 5744 5742 5740 5740 5740 5740 5740 5740 5741 5743 5744 5744 5745 5744 5745 5745 5746 5745 5746 5746 5746 5746 5747 5749 5750 5751 5753
5764 5764 5764 5763 5762 5761 5759 5758 5756 5754 5752 5750 5748 5746 5744 5742 5739 5737 5736 5736 5737 5737 5737 5738 5739 5739 5740 5742 5743 5743 5743 5742 5742 5742 5742 5742 5742 5743 5745 5746 5747 5749
5762 5761 5761 5761 5760 5759 5757 5756 5754 5752 5750 5748 5746 5744 5742 5740 5738 5736 5734 5734 5735 5735 5735 5736 5736 5736 5736 5738 5739 5740 5739 5738 5738 5738 5738 5738 5739 5740 5742 5742 5743 5744
5759 5759 5758 5758 5757 5756 5755 5753 5752 5750 5749 5747 5745 5743 5740 5738 5737 5735 5733 5732 5732 5732 5732 5732 5733 5733 5733 5734 5735 5735 5735 5735 5735 5735 5734 5734 5735 5737 5738 5738 5739 5740
5756 5756 5756 5755 5754 5753 5752 5750 5749 5748 5747 5745 5744 5742 5739 5737 5735 5734 5732 5730 5730 5730 5730 5730 5730 5730 5730 5731 5732 5732 5731 5732 5733 5733 5732 5732 5733 5734 5734 5735 5735 5736
5754 5753 5753 5752 5751 5750 5749 5747 5746 5745 5744 5743 5742 5741 5738 5736 5734 5733 5731 5730 5729 5728 5728 5728 5727 5727 5727 5727 5727 5727 5728 5729 5730 5730 5730 5731 5731 5731 5731 5731 5732 5733
5751 5750 5750 5749 5748 5747 5746 5745 5743 5742 5741 5740 5739 5739 5737 5735 5734 5732 5731 5729 5728 5727 5726 5725 5725 5725 5724 5723 5722 5723 5724 5725 5725 5725 5726 5727 5728 5728 5728 5728 5729 5729
5748 5747 5746 5746 5745 5743 5743 5742 5740 5739 5738 5737 5736 5736 5735 5734 5732 5731 5729 5728 5727 5726 5724 5723 5723 5723 5722 5721 5721 5721 5721 5721 5720 5721 5722 5722 5723 5724 5724 5724 5725 5726
5744 5743 5743 5742 5742 5741 5739 5739 5737 5736 5735 5734 5733 5732 5732 5732 5730 5728 5727 5726 5725 5724 5723 5722 5721 5721 5720 5720 5720 5719 5719 5719 5718 5718 5719 5719 5719 5720 5720 5721 5722 5722
5740 5740 5739 5739 5738 5737 5736 5735 5734 5733 5732 5731 5729 5728 5728 5728 5728 5726 5725 5724 5722 5721 5720 5719 5719 5719 5718 5718 5717 5717 5717 5717 5716 5715 5715 5715 5716 5716 5716 5717 5718 5718
5736 5736 5735 5735 5735 5734 5733 5732 5731 5730 5729 5728 5726 5724 5723 5723 5724 5723 5722 5721 5719 5718 5717 5716 5716 5716 5715 5714 5714 5714 5714 5714 5713 5712 5711 5711 5711 5712 5712 5712 5713 5714
5732 5732 5731 5731 5731 5730 5729 5728 5727 5726 5725 5724 5723 5721 5720 5719 5719 5719 5718 5717 5716 5715 5714 5713 5713 5712 5712 5711 5710 5710 5710 5711 5710 5709 5708 5707 5707 5707 5707 5708 5709 5710
5728 5728 5727 5727 5726 5726 5725 5724 5723 5722 5721 5720 5719 5718 5716 5715 5714 5714 5714 5713 5712 5711 5710 5710 5709 5709 5708 5707 5707 5706 5706 5707 5707 5706 5705 5703 5702 5703 5703 5704 5705 5706
5724 5723 5723 5722 5722 5721 5720 5719 5718 5717 5717 5716 5715 5714 5713 5711 5710 5709 5709 5709 5708 5707 5706 5706 5705 5705 5704 5704 5703 5703 5702 5702 5702 5702 5701 5699 5699 5699 5699 5699 5700 5701
5719 5719 5718 5717 5717 5716 5715 5714 5713 5713 5712 5711 5710 5709 5708 5707 5706 5705 5704 5704 5703 5703 5702 5702 5701 5701 5700 5700 5699 5699 5698 5698 5698 5698 5697 5696 5695 5695 5695 5695 5695 5696
5714 5714 5713 5712 5711 5710 5710 5709 5708 5707 5707 5706 5705 5704 5703 5702 5701 5700 5699 5699 5698 5698 5698 5697 5697 5696 5696 5696 5695 5695 5694 5693 5693 5693 5693 5692 5691 5691 5691 5690 5691 5691
5709 5709 5707 5707 5706 5705 5704 5703 5702 5702 5701 5700 5700 5699 5698 5697 5696 5695 5694 5694 5693 5693 5692 5692 5692 5692 5691 5691 5691 5690 5690 5689 5688 5688 5689 5688 5688 5687 5686 5686 5686 5687
5704 5703 5702 5701 5701 5699 5698 5697 5696 5696 5695 5694 5694 5693 5693 5692 5691 5690 5689 5688 5688 5687 5687 5687 5687 5687 5686 5686 5686 5686 5685 5684 5684 5683 5683 5683 5683 5683 5682 5681 5682 5683